Location: Moonridge Observatory
(39.2268°N, 77.7914°W)
Time: 04:57:59
(UTC-04:00)

CZ-2C R/B - Visible Passes

Search period start: 22 April 2018 00:00
Search period end: 02 May 2018 00:00
Orbit: 704 x 909 km, 98.2° (Epoch: 21 April)

Date Brightness Start Highest point End Pass type
(mag) Time Alt. Az. Time Alt. Az. Time Alt. Az.
22 Apr 5.4 00:30:14 16° NW 00:30:14 16° NW 00:31:23 10° NW visible
22 Apr 4.9 22:23:57 16° NE 22:23:57 16° NE 22:25:57 10° NNE visible
23 Apr 4.9 00:05:00 24° NW 00:05:00 24° NW 00:07:01 10° NNW visible
23 Apr 4.5 23:39:46 32° NNW 23:39:46 32° NNW 23:42:20 10° NNW visible
24 Apr 4.2 23:14:32 33° NNE 23:14:32 33° NNE 23:17:23 10° N visible
25 Apr 5.7 00:55:36 10° WNW 00:55:36 10° WNW 00:55:36 10° WNW visible
25 Apr 4.4 22:49:18 26° NE 22:49:18 26° NE 22:52:11 10° N visible
26 Apr 5.3 00:30:22 17° NW 00:30:22 17° NW 00:31:54 10° NW visible
26 Apr 4.8 22:24:05 17° NE 22:24:05 17° NE 22:26:36 10° NNE visible
27 Apr 4.7 00:05:08 27° NW 00:05:08 27° NW 00:07:33 10° NNW visible
27 Apr 5.2 21:58:51 10° ENE 21:58:56 10° ENE 21:59:26 10° NE visible
27 Apr 4.2 23:39:54 38° NNW 23:39:54 38° NNW 23:42:53 10° NNW visible
28 Apr 3.9 23:14:40 38° NNE 23:14:40 38° NNE 23:17:58 10° N visible
29 Apr 5.6 00:55:44 11° WNW 00:55:44 11° WNW 00:56:05 10° WNW visible
29 Apr 4.2 22:49:26 28° NE 22:49:26 28° NE 22:52:48 10° N visible
30 Apr 5.1 00:30:30 19° WNW 00:30:30 19° WNW 00:32:26 10° NW visible
30 Apr 4.7 22:24:13 18° ENE 22:24:13 18° ENE 22:27:15 10° NNE visible
01 May 4.5 00:05:16 31° NW 00:05:16 31° NW 00:08:07 10° NNW visible
01 May 5.1 21:58:59 11° ENE 21:59:26 11° ENE 22:00:37 10° NE visible
01 May 3.9 23:40:02 45° NNW 23:40:02 45° NNW 23:43:29 10° NNW visible
